NJU728 EHRD-EGAA

Flight info

Callsign NJU728
Flight time N/A
Altitude 43000
Route TULIP L74 MONIL P1 SUPUR L602 NALAX L46 GETNO DCT REMSI DCT KELLY DCT IOM L10 RINGA
Aircraft C750/M-SBDE3FGHRWXY/S

Departure

Time 2026-04-27 14:58
Airport Rotterdam The Hague Airport (EHRD)

Arrival

Time N/A
Airport Belfast International Airport (EGAA)
Time Latitude Longitude Altitude Speed Heading
2026-04-27 14:49 51.95022 4.43500 -3 ft 0 kts 326°
2026-04-27 14:55 51.95042 4.43488 -3 ft 5 kts 355°
2026-04-27 14:55 51.95065 4.43515 -3 ft 5 kts 55°
2026-04-27 14:55 51.95099 4.43575 -3 ft 9 kts 16°
2026-04-27 14:56 51.95156 4.43526 -3 ft 11 kts 326°
2026-04-27 14:56 51.95235 4.43439 -3 ft 16 kts 318°
2026-04-27 14:56 51.95199 4.43290 -3 ft 17 kts 237°
2026-04-27 14:56 51.95129 4.43095 -3 ft 23 kts 245°
2026-04-27 14:57 51.95135 4.42914 -3 ft 14 kts 322°
2026-04-27 14:57 51.95203 4.42853 -2 ft 8 kts 343°
2026-04-27 14:57 51.95231 4.42880 -1 ft 6 kts 50°
2026-04-27 14:57 51.95340 4.43140 -2 ft 78 kts 58°
2026-04-27 14:58 51.95789 4.44285 157 ft 136 kts 55°
2026-04-27 14:58 51.96300 4.45612 856 ft 144 kts 53°
2026-04-27 14:58 51.96875 4.46994 1562 ft 155 kts 54°
2026-04-27 14:58 51.97466 4.48498 2367 ft 160 kts 59°
2026-04-27 14:59 51.97970 4.50215 3013 ft 180 kts 65°
2026-04-27 14:59 51.98749 4.52086 2978 ft 229 kts 38°
2026-04-27 14:59 52.00171 4.53089 3001 ft 216 kts 10°
2026-04-27 14:59 52.01639 4.52927 2993 ft 210 kts 344°
2026-04-27 15:00 52.02906 4.51675 3145 ft 227 kts 316°
2026-04-27 15:00 52.03676 4.49545 4410 ft 212 kts 292°
2026-04-27 15:00 52.03773 4.47070 5142 ft 230 kts 261°
2026-04-27 15:00 52.03147 4.44601 5256 ft 252 kts 247°
2026-04-27 15:01 52.02953 4.41707 5233 ft 261 kts 284°
2026-04-27 15:01 52.03855 4.39218 5218 ft 258 kts 320°
2026-04-27 15:01 52.05475 4.38075 5412 ft 264 kts 350°
2026-04-27 15:01 52.07253 4.37579 6752 ft 254 kts 349°
2026-04-27 15:02 52.08982 4.36812 7715 ft 263 kts 340°
2026-04-27 15:02 52.10642 4.35486 8769 ft 268 kts 329°
2026-04-27 15:02 52.12246 4.33857 9805 ft 275 kts 327°
2026-04-27 15:02 52.13915 4.32267 10658 ft 284 kts 329°
2026-04-27 15:03 52.15708 4.30670 10951 ft 310 kts 330°
2026-04-27 15:03 52.17694 4.28888 11099 ft 338 kts 329°
2026-04-27 15:03 52.19774 4.26971 11814 ft 343 kts 328°
2026-04-27 15:03 52.21859 4.25051 12633 ft 346 kts 329°
2026-04-27 15:04 52.23971 4.23094 13331 ft 351 kts 327°
2026-04-27 15:04 52.26080 4.21026 14046 ft 355 kts 329°
2026-04-27 15:04 52.28283 4.19146 14738 ft 358 kts 330°
2026-04-27 15:04 52.30461 4.17236 15390 ft 361 kts 328°
2026-04-27 15:05 52.32651 4.15158 16074 ft 364 kts 327°
2026-04-27 15:05 52.34854 4.13073 16766 ft 368 kts 328°
2026-04-27 15:05 52.37099 4.11027 17482 ft 371 kts 328°
2026-04-27 15:05 52.39365 4.08964 18202 ft 375 kts 328°
2026-04-27 15:06 52.41646 4.06843 18899 ft 379 kts 327°
2026-04-27 15:06 52.43948 4.04694 19585 ft 381 kts 327°
2026-04-27 15:06 52.46271 4.02544 20294 ft 384 kts 327°
2026-04-27 15:06 52.48588 4.00400 20974 ft 388 kts 327°
2026-04-27 15:07 52.50947 3.98205 21656 ft 391 kts 327°
2026-04-27 15:07 52.53329 3.95983 22350 ft 394 kts 326°
2026-04-27 15:07 52.55728 3.93747 23005 ft 397 kts 326°
2026-04-27 15:07 52.58146 3.91492 23651 ft 401 kts 326°
2026-04-27 15:08 52.60582 3.89215 24222 ft 404 kts 326°
2026-04-27 15:08 52.63036 3.86918 24759 ft 407 kts 326°
2026-04-27 15:08 52.65487 3.84621 25291 ft 410 kts 326°
2026-04-27 15:08 52.67984 3.82278 25826 ft 414 kts 326°
2026-04-27 15:09 52.70497 3.79917 26389 ft 417 kts 326°
2026-04-27 15:09 52.73029 3.77535 26887 ft 421 kts 326°
2026-04-27 15:09 52.75599 3.75125 27405 ft 425 kts 326°
2026-04-27 15:09 52.78279 3.73092 27884 ft 432 kts 333°
2026-04-27 15:10 52.81059 3.71151 28432 ft 435 kts 332°
2026-04-27 15:10 52.83845 3.69135 28970 ft 439 kts 332°
2026-04-27 15:10 52.86659 3.67095 29495 ft 443 kts 332°
2026-04-27 15:10 52.89508 3.65070 30008 ft 447 kts 332°
2026-04-27 15:11 52.92380 3.63031 30481 ft 450 kts 332°
2026-04-27 15:11 52.95273 3.60929 30901 ft 452 kts 330°
2026-04-27 15:11 52.97978 3.58365 31260 ft 452 kts 321°
2026-04-27 15:11 53.00442 3.55192 31916 ft 444 kts 314°
2026-04-27 15:12 53.02592 3.51551 32627 ft 437 kts 307°
2026-04-27 15:12 53.04394 3.47534 33313 ft 431 kts 300°
2026-04-27 15:12 53.05876 3.43220 33986 ft 427 kts 296°
2026-04-27 15:12 53.07275 3.38932 34583 ft 426 kts 296°
2026-04-27 15:13 53.08703 3.34606 35092 ft 426 kts 297°
2026-04-27 15:13 53.09947 3.30123 35516 ft 426 kts 289°
2026-04-27 15:13 53.10761 3.25398 35995 ft 425 kts 282°
2026-04-27 15:13 53.11390 3.20564 36459 ft 426 kts 282°
2026-04-27 15:14 53.12027 3.15789 36930 ft 427 kts 283°
2026-04-27 15:14 53.12679 3.10949 37422 ft 428 kts 283°
2026-04-27 15:14 53.13320 3.06099 37906 ft 430 kts 283°
2026-04-27 15:14 53.13955 3.01231 38469 ft 429 kts 283°
2026-04-27 15:15 53.14593 2.96363 39008 ft 429 kts 283°
2026-04-27 15:15 53.15232 2.91499 39410 ft 430 kts 283°
2026-04-27 15:15 53.15869 2.86620 39828 ft 431 kts 283°
2026-04-27 15:15 53.16503 2.81727 40226 ft 432 kts 283°
2026-04-27 15:16 53.17129 2.76883 40621 ft 433 kts 283°
2026-04-27 15:16 53.17764 2.71961 41049 ft 433 kts 283°
2026-04-27 15:16 53.18398 2.67032 41474 ft 434 kts 283°
2026-04-27 15:16 53.19030 2.62098 41895 ft 435 kts 283°
2026-04-27 15:17 53.19652 2.57219 42307 ft 436 kts 283°
2026-04-27 15:17 53.20283 2.52260 42695 ft 437 kts 283°
2026-04-27 15:17 53.20912 2.47292 43075 ft 438 kts 283°
2026-04-27 15:17 53.21543 2.42299 43276 ft 444 kts 283°
2026-04-27 15:18 53.22831 2.32042 43278 ft 462 kts 283°
2026-04-27 15:18 53.23941 2.23136 43292 ft 477 kts 283°
2026-04-27 15:19 53.25307 2.12103 43289 ft 490 kts 283°
2026-04-27 15:19 53.26899 1.99117 43284 ft 492 kts 283°
2026-04-27 15:20 53.28036 1.89777 43287 ft 492 kts 282°
2026-04-27 15:20 53.29393 1.78537 43284 ft 492 kts 282°
2026-04-27 15:21 53.30739 1.67294 43281 ft 492 kts 282°
2026-04-27 15:21 53.32066 1.56113 43282 ft 492 kts 282°
2026-04-27 15:22 53.33553 1.44946 43276 ft 491 kts 285°
2026-04-27 15:22 53.35184 1.33829 43281 ft 491 kts 285°
2026-04-27 15:23 53.36781 1.22689 43282 ft 491 kts 285°
2026-04-27 15:23 53.38374 1.11620 43281 ft 492 kts 284°
2026-04-27 15:24 53.39954 1.00467 43278 ft 491 kts 284°
2026-04-27 15:24 53.41527 0.89350 43281 ft 490 kts 284°
2026-04-27 15:25 53.43087 0.78208 43279 ft 490 kts 284°
2026-04-27 15:25 53.44630 0.67122 43280 ft 490 kts 284°
2026-04-27 15:26 53.46173 0.55943 43288 ft 493 kts 284°
2026-04-27 15:26 53.47709 0.44735 43296 ft 493 kts 284°
2026-04-27 15:27 53.49227 0.33575 43290 ft 492 kts 284°
2026-04-27 15:27 53.50746 0.22319 43291 ft 492 kts 284°
2026-04-27 15:28 53.52251 0.11089 43286 ft 492 kts 284°
2026-04-27 15:28 53.53738 -0.00105 43291 ft 493 kts 284°
2026-04-27 15:29 53.55221 -0.11355 43284 ft 492 kts 284°
2026-04-27 15:29 53.56686 -0.22549 43287 ft 492 kts 284°
2026-04-27 15:30 53.58147 -0.33802 43290 ft 492 kts 284°
2026-04-27 15:30 53.59600 -0.45088 43293 ft 492 kts 284°
2026-04-27 15:31 53.61031 -0.56284 43289 ft 492 kts 284°
2026-04-27 15:31 53.62464 -0.67594 43294 ft 492 kts 284°
2026-04-27 15:32 53.63876 -0.78831 43285 ft 492 kts 283°
2026-04-27 15:32 53.65286 -0.90136 43279 ft 492 kts 283°
2026-04-27 15:33 53.66688 -1.01472 43276 ft 492 kts 283°
2026-04-27 15:33 53.68065 -1.12709 43279 ft 491 kts 283°
2026-04-27 15:34 53.69443 -1.24036 43286 ft 491 kts 283°
2026-04-27 15:34 53.70800 -1.35291 43300 ft 491 kts 283°
2026-04-27 15:35 53.72155 -1.46620 43308 ft 491 kts 283°
2026-04-27 15:35 53.73502 -1.57984 43306 ft 492 kts 283°
2026-04-27 15:36 53.74750 -1.69303 43313 ft 493 kts 282°
2026-04-27 15:36 53.75977 -1.80709 43312 ft 492 kts 283°
2026-04-27 15:37 53.77217 -1.92117 43302 ft 492 kts 282°
2026-04-27 15:37 53.78423 -2.03505 43300 ft 492 kts 282°
2026-04-27 15:38 53.79636 -2.14921 43304 ft 492 kts 282°
2026-04-27 15:38 53.80818 -2.26261 43304 ft 492 kts 282°
2026-04-27 15:39 53.82004 -2.37672 43309 ft 492 kts 282°
2026-04-27 15:39 53.83175 -2.49103 43307 ft 492 kts 282°
2026-04-27 15:40 53.84333 -2.60481 43313 ft 492 kts 282°
2026-04-27 15:40 53.85482 -2.71906 43313 ft 491 kts 282°
2026-04-27 15:41 53.86614 -2.83265 43322 ft 491 kts 282°
2026-04-27 15:41 53.87742 -2.94705 43322 ft 491 kts 282°
2026-04-27 15:42 53.88852 -3.06077 43323 ft 491 kts 282°
2026-04-27 15:42 53.89961 -3.17547 43321 ft 490 kts 282°
2026-04-27 15:43 53.91053 -3.28964 43322 ft 492 kts 282°
2026-04-27 15:43 53.92139 -3.40443 43321 ft 492 kts 282°
2026-04-27 15:44 53.93210 -3.51877 43332 ft 492 kts 281°
2026-04-27 15:44 53.94268 -3.63304 43342 ft 492 kts 281°
2026-04-27 15:45 53.95323 -3.74826 43337 ft 495 kts 281°
2026-04-27 15:45 53.95651 -3.86337 42805 ft 483 kts 268°
2026-04-27 15:46 53.95135 -3.91997 42013 ft 491 kts 263°
2026-04-27 15:46 53.94490 -3.97615 41361 ft 478 kts 263°
2026-04-27 15:46 53.93917 -4.03124 40586 ft 468 kts 265°
2026-04-27 15:46 53.93418 -4.08479 39611 ft 452 kts 265°
2026-04-27 15:47 53.92898 -4.13815 37904 ft 459 kts 265°
2026-04-27 15:47 53.92331 -4.19127 36093 ft 455 kts 267°
2026-04-27 15:47 53.91829 -4.24378 34330 ft 455 kts 272°
2026-04-27 15:47 53.91759 -4.29663 32472 ft 451 kts 281°
2026-04-27 15:48 53.92121 -4.34848 30746 ft 419 kts 289°
2026-04-27 15:48 53.92839 -4.39509 28932 ft 402 kts 297°
2026-04-27 15:48 53.93913 -4.43981 27290 ft 400 kts 302°
2026-04-27 15:49 53.96768 -4.51708 23937 ft 386 kts 310°
2026-04-27 15:49 53.98291 -4.55451 22513 ft 378 kts 309°
2026-04-27 15:49 53.99748 -4.59099 21240 ft 366 kts 309°
2026-04-27 15:49 54.01151 -4.62588 20056 ft 356 kts 309°